Content
SEND FEEDBACK

Daily
Averages
Monthly
Summary
United States of America

BRILL, WISCONSIN


Home > North America > United States > Wisconsin
Elevation: 1130 feet     Latitude: 45 30N     Longitude: 091 43W

WEATHER
 
SELECT A DAY
Number of Records: 443,165;   Date Range: 7/1/96 - 9/21/14
 
SHARE

PRINT THIS DATA

[ ← Previous Day ]
WEATHER ALMANAC - JANUARY 31, 2013
[ Next Day → ]
[ °C ]   °F
Weather ElementAverageHighLow
Temperature4.8 °F10.4 °F (12:35 am)-4 °F (11:15 pm)
Dewpoint-3.9 °F3.2 °F (12:55 am)-13 °F (11:35 pm)
Humidity67.5 %85 % (5:35 am)52 % (2:55 pm)
Barometer29.90 in30.15 in (11:35 pm)29.67 in (12:35 am)
Wind Speed11.3 mph16.1 mph (8:55 am)
Wind Gust24.2 mph (5:55 am)
Weather ElementAverage
Visibility9.3 mi
Wind DirectionWNW (288.1 °)

Weather ElementTotal
Precipitation---
Heating Degree Days61.8 (Base 65)
Averaged from 70 records on January 31, 2013
WEATHER CONDITIONS BREAKOUT
WIND DIRECTION BREAKOUT
WEATHER BY HOUR - JANUARY 31, 2013
[ °C ]   °F
Local TimeTemperatureDewpointHumidityBarometerVisibilityWind DirectionWind SpeedGust SpeedPrecipitationEventsConditions
12:35 AM10.4 °F1.4 °F67 %29.67 in10.0 miNW (310°)8.1 mphOvercast
12:55 AM10.4 °F3.2 °F73 %29.67 in7.0 miWNW (300°)6.9 mphOvercast
1:15 AM8.6 °F1.4 °F73 %29.68 in10.0 miNW (310°)10.4 mph17.3 mphOvercast
1:35 AM8.6 °F-0.4 °F67 %29.68 in10.0 miWNW (300°)8.1 mphOvercast
1:55 AM8.6 °F-0.4 °F67 %29.69 in10.0 miWNW (290°)8.1 mphOvercast
2:15 AM8.6 °F1.4 °F73 %29.69 in10.0 miWNW (290°)9.2 mphOvercast
2:35 AM8.6 °F1.4 °F73 %29.69 in10.0 miWNW (290°)10.4 mph17.3 mphOvercast
2:55 AM8.6 °F1.4 °F73 %29.70 in10.0 miWest (280°)10.4 mphOvercast
3:15 AM8.6 °F1.4 °F73 %29.70 in10.0 miWNW (290°)11.5 mph16.1 mphOvercast
3:35 AM8.6 °F1.4 °F73 %29.70 in5.0 miWNW (290°)8.1 mphSnowLight Snow
3:55 AM8.6 °F1.4 °F73 %29.71 in7.0 miWNW (290°)8.1 mphSnowLight Snow
4:15 AM8.6 °F1.4 °F73 %29.71 in7.0 miWNW (290°)9.2 mphSnowLight Snow
4:35 AM8.6 °F1.4 °F73 %29.71 in7.0 miWest (280°)9.2 mphSnowLight Snow
4:55 AM6.8 °F1.4 °F79 %29.72 in10.0 miWNW (290°)10.4 mphOvercast
5:15 AM6.8 °F1.4 °F79 %29.72 in10.0 miWest (280°)9.2 mphOvercast
5:35 AM5.0 °F1.4 °F85 %29.73 in5.0 miWest (280°)13.8 mphHaze
5:55 AM5.0 °F-0.4 °F78 %29.74 in5.0 miWNW (290°)13.8 mph24.2 mphHaze
6:15 AM5.0 °F-0.4 °F78 %29.74 in10.0 miWNW (290°)12.7 mph19.6 mphOvercast
6:35 AM5.0 °F-0.4 °F78 %29.75 in10.0 miWest (280°)11.5 mphOvercast
6:55 AM5.0 °F-2.2 °F72 %29.77 in7.0 miWest (280°)12.7 mphOvercast
7:15 AM3.2 °F-2.2 °F78 %29.78 in10.0 miWNW (290°)12.7 mph17.3 mphMostly Cloudy
7:35 AM3.2 °F-4.0 °F72 %29.79 in10.0 miWNW (290°)11.5 mphScattered Clouds
7:55 AM3.2 °F-4.0 °F72 %29.80 in10.0 miWNW (290°)12.7 mph20.7 mphScattered Clouds
8:15 AM3.2 °F-4.0 °F72 %29.81 in5.0 miWNW (290°)15.0 mphHaze
8:35 AM3.2 °F-4.0 °F72 %29.82 in7.0 miWest (280°)13.8 mph18.4 mphOvercast
8:55 AM3.2 °F-4.0 °F72 %29.83 in10.0 miWest (280°)16.1 mph19.6 mphOvercast
9:15 AM3.2 °F-4.0 °F72 %29.83 in7.0 miWNW (300°)13.8 mph18.4 mphOvercast
9:35 AM5.0 °F-4.0 °F66 %29.84 in7.0 miWNW (290°)11.5 mph21.9 mphOvercast
9:55 AM5.0 °F-4.0 °F66 %29.86 in7.0 miWNW (300°)11.5 mph18.4 mphOvercast
10:15 AM5.0 °F-4.0 °F66 %29.87 in7.0 miWNW (290°)12.7 mph19.6 mphOvercast
10:35 AM5.0 °F-4.0 °F66 %29.88 in10.0 miWest (280°)16.1 mph20.7 mphOvercast
10:55 AM5.0 °F-4.0 °F66 %29.88 in10.0 miWNW (300°)11.5 mph17.3 mphOvercast
11:15 AM5.0 °F-5.8 °F61 %29.89 in10.0 miNW (310°)13.8 mph18.4 mphOvercast
11:35 AM5.0 °F-4.0 °F66 %29.89 in10.0 miWNW (290°)15.0 mph19.6 mphMostly Cloudy
11:55 AM5.0 °F-5.8 °F61 %29.90 in10.0 miWNW (300°)16.1 mph20.7 mphScattered Clouds
12:15 PM5.0 °F-5.8 °F61 %29.90 in10.0 miWNW (290°)13.8 mph18.4 mphScattered Clouds
12:35 PM6.8 °F-5.8 °F56 %29.91 in10.0 miWNW (300°)12.7 mph17.3 mphScattered Clouds
12:55 PM6.8 °F-5.8 °F56 %29.91 in10.0 miWNW (290°)15.0 mphMostly Cloudy
1:15 PM6.8 °F-5.8 °F56 %29.91 in10.0 miWNW (300°)10.4 mphMostly Cloudy
1:35 PM6.8 °F-4.0 °F61 %29.92 in10.0 miWNW (290°)12.7 mph18.4 mphOvercast
1:55 PM6.8 °F-4.0 °F61 %29.93 in10.0 miWest (270°)11.5 mph17.3 mphOvercast
2:15 PM6.8 °F-4.0 °F61 %29.93 in10.0 miWNW (290°)11.5 mph19.6 mphOvercast
2:35 PM6.8 °F-4.0 °F61 %29.94 in10.0 miWest (280°)11.5 mph18.4 mphOvercast
2:55 PM8.6 °F-5.8 °F52 %29.95 in10.0 miWNW (290°)13.8 mph20.7 mphOvercast
3:15 PM8.6 °F-5.8 °F52 %29.96 in10.0 miWNW (290°)12.7 mphMostly Cloudy
3:35 PM6.8 °F-5.8 °F56 %29.97 in10.0 miWest (280°)16.1 mph19.6 mphMostly Cloudy
3:55 PM6.8 °F-4.0 °F61 %29.98 in10.0 miWest (280°)13.8 mph18.4 mphMostly Cloudy
4:15 PM6.8 °F-4.0 °F61 %29.99 in10.0 miWNW (290°)10.4 mph18.4 mphOvercast
4:35 PM5.0 °F-4.0 °F66 %30.00 in10.0 miWNW (290°)10.4 mph16.1 mphOvercast
4:55 PM5.0 °F-4.0 °F66 %30.01 in10.0 miWNW (290°)11.5 mph16.1 mphOvercast
5:15 PM5.0 °F-4.0 °F66 %30.01 in10.0 miWest (280°)12.7 mph18.4 mphOvercast
5:35 PM3.2 °F-5.8 °F66 %30.03 in10.0 miWest (270°)11.5 mph16.1 mphOvercast
5:55 PM3.2 °F-5.8 °F66 %30.03 in10.0 miWest (270°)8.1 mphOvercast
6:15 PM3.2 °F-5.8 °F66 %30.04 in10.0 miWest (280°)9.2 mphOvercast
6:35 PM3.2 °F-5.8 °F66 %30.05 in10.0 miWest (280°)10.4 mphOvercast
6:55 PM5.0 °F-5.8 °F61 %30.06 in10.0 miWNW (290°)11.5 mphOvercast
7:15 PM3.2 °F-5.8 °F66 %30.07 in10.0 miWNW (300°)10.4 mphMostly Cloudy
7:35 PM3.2 °F-5.8 °F66 %30.08 in10.0 miWest (280°)10.4 mphOvercast
7:55 PM1.4 °F-5.8 °F72 %30.09 in10.0 miWest (280°)8.1 mphMostly Cloudy
8:15 PM1.4 °F-7.6 °F66 %30.10 in10.0 miWNW (290°)9.2 mphScattered Clouds
8:35 PM1.4 °F-7.6 °F66 %30.10 in10.0 miWNW (290°)10.4 mphClear
8:55 PM1.4 °F-9.4 °F61 %30.11 in10.0 miWNW (300°)9.2 mphClear
9:15 PM-0.4 °F-9.4 °F66 %30.11 in10.0 miWest (280°)8.1 mphClear
9:35 PM-0.4 °F-9.4 °F66 %30.12 in10.0 miWNW (290°)9.2 mph16.1 mphClear
9:55 PM-0.4 °F-9.4 °F66 %30.12 in10.0 miWest (280°)9.2 mphClear
10:15 PM-0.4 °F-9.4 °F66 %30.13 in10.0 miWest (280°)9.2 mphClear
10:35 PM-2.2 °F-9.4 °F71 %30.13 in10.0 miWest (280°)9.2 mphClear
10:55 PM-2.2 °F-9.4 °F71 %30.13 in10.0 miWest (270°)9.2 mphClear
11:15 PM-4.0 °F-11.2 °F71 %30.14 in10.0 miWNW (290°)11.5 mphClear
11:35 PM-4.0 °F-13.0 °F65 %30.15 in10.0 miWNW (290°)12.7 mphClear
Hourly data recorded from KRPD, located miles away from Brill, Wisconsin







STORIES FROM OUR PARTNERS